sat.trackr.live / text

‹ back to catalog

LEMUR-2-UNTITLED-SC

NORAD 63351 · 2025-061A

PAYLOAD ACTIVE UNKNOWN

§ Identity

Operator
Country
US
Launch date
2025-03-26
Launch site
RLLB
Launch vehicle
Mass (kg)
RCS (m²)

Purposes: earth_obs

External: N2YO · Heavens-Above · Gunter

§ Orbital elements

Epoch: 2026-05-25T05:04:43.876416Z

Period
95.16 min
Inclination
97.5625°
Eccentricity
0.0018478
Mean motion
15.13285481 rev/d
Perigee alt
513.4 km
Apogee alt
538.9 km
Semi-major
6,904.3 km
B*
2.1640e-4
RAAN
120.7463°
Arg perigee
350.1487°
Mean anomaly
9.9379°
Rev number
6,411

§ Raw data

LEMUR-2-UNTITLED-SC1 63351U 25061A   26145.21161894  .00003799  00000+0  21640-3 0  99952 63351  97.5625 120.7463 0018478 350.1487   9.9379 15.13285481 64110

JSON: /api/v1/satellites/63351 · /tle

For live sub-satellite position, see the globe view (requires WebGL).

§ Visibility from observer

Set your observer location to see the next 7 days of passes ≥ 10°. The values pass through the URL so the page stays shareable.

No JS? Fill the form by hand. The geolocation button needs JavaScript.